Location: Chandler
(33.3060°N, 111.8410°W)
Time: 09:15:27
(UTC-07:00)

Amateur Radio Satellites - All Passes

Search period start: 04 December 2016 08:45
Search period end: 05 December 2016 08:45
Location: Chandler, 33.3060°N, 111.8410°W

Satellite Date Start Highest point End Downlink Frequencies (MHz)
Time Altitude Azimuth
AAUSAT CUBESAT 2 04 Dec 08:46:13 08:50:20 70° 100° (E) 08:54:28 437.432
UWE-3 04 Dec 08:47:48 08:51:58 48° 99° (E) 08:56:00 435.000/436.395/437.385
UNISAT 6 04 Dec 08:54:11 08:57:09 17° 68° (ENE) 09:00:05 437.425
PRISM 04 Dec 08:58:15 09:02:18 86° 261° (W) 09:06:23 437.425
SEEDS 04 Dec 09:00:08 09:03:58 36° 286° (WNW) 09:07:48 437.485
CINEMA 3 04 Dec 09:06:52 09:09:39 16° 294° (WNW) 09:12:23 145.822/145.860
COMPASS 1 04 Dec 09:14:34 09:18:23 37° 287° (WNW) 09:22:14 437.405
RS-15 04 Dec 09:17:08 09:28:18 48° 308° (NW) 09:40:02 29.354- 29.394
TIGRISAT 04 Dec 09:23:27 09:27:37 32° 72° (ENE) 09:31:46 435.000
ANTELSAT 04 Dec 09:24:16 09:28:32 35° 72° (ENE) 09:32:46 437.575/2403.000
ZACube-1 04 Dec 09:33:34 09:37:47 77° 285° (WNW) 09:41:56 437.345
CUBEBUG 2 04 Dec 09:37:50 09:41:25 25° 290° (WNW) 09:44:54 437.445
JAS-2 04 Dec 09:41:13 09:44:30 14° 65° (ENE) 09:47:36 435.910
FUNcube-1 04 Dec 09:42:31 09:46:42 64° 284° (WNW) 09:50:46 145.935
HUMSAT D 04 Dec 09:44:43 09:47:34 18° 95° (E) 09:50:25 437.325/437.525
AIST 2 04 Dec 09:58:24 10:00:32 14° 310° (NW) 10:02:41 435.215
DELFI C3 04 Dec 10:02:49 10:06:48 70° 101° (E) 10:10:45 145.870
CUSAT 1 04 Dec 10:07:51 10:11:31 57° 278° (W) 10:14:29 437.405
HO-68 04 Dec 10:12:15 10:16:08 16° 301° (WNW) 10:20:02 435.675
Oscar 11 04 Dec 10:16:18 10:19:54 27° 288° (WNW) 10:23:31 145.826/435.025
QB50P1 04 Dec 10:17:21 10:19:12 13° 67° (ENE) 10:21:05 145.935-145.965
DUCHIFAT 1 04 Dec 10:22:37 10:24:20 12° 67° (ENE) 10:26:04 145.980
UWE-3 04 Dec 10:26:32 10:27:54 11° 294° (WNW) 10:29:15 435.000/436.395/437.385
UNISAT 6 04 Dec 10:29:03 10:33:29 41° 262° (W) 10:37:54 437.425
DANDE 04 Dec 10:32:02 10:37:25 59° 97° (E) 10:41:26 436.750
POPSAT HIP 1 04 Dec 10:37:06 10:40:21 22° 70° (ENE) 10:43:38 437.405
PCSat 04 Dec 10:41:34 10:44:26 15° 104° (ESE) 10:47:19 145.827
JUGNU 04 Dec 10:45:21 10:46:25 10° 163° (SSE) 10:47:29 437.505
TIGRISAT 04 Dec 11:00:50 11:04:17 20° 265° (W) 11:07:44 435.000
ANTELSAT 04 Dec 11:01:59 11:05:14 19° 265° (W) 11:08:30 437.575/2403.000
CUBEBUG 1 04 Dec 11:12:16 11:14:48 15° 94° (E) 11:17:19 437.445
VELOX 1 04 Dec 11:19:09 11:20:21 11° 93° (E) 11:21:33 145.980
HUMSAT D 04 Dec 11:19:44 11:23:08 26° 288° (WNW) 11:26:30 437.325/437.525
JAS-2 04 Dec 11:22:12 11:29:04 76° 257° (WSW) 11:35:07 435.910
BUGSAT 1 04 Dec 11:25:43 11:29:09 25° 71° (ENE) 11:32:37 437.445
Cosmos 2499 04 Dec 11:27:14 11:34:35 31° 73° (ENE) 11:41:28 435.465 / 435.565
NANOSAT C BR1 04 Dec 11:32:02 11:36:17 84° 258° (WSW) 11:40:34 145.865
QB50P2 04 Dec 11:35:59 11:40:13 63° 259° (W) 11:44:29 145.880/145.840
POLYITAN 1 04 Dec 11:36:32 11:40:48 67° 259° (WSW) 11:45:06 437.675
RS-15 04 Dec 11:38:38 11:45:06 15° 338° (NNW) 11:51:40 29.354- 29.394
QB50P1 04 Dec 11:50:27 11:54:32 45° 261° (W) 11:58:39 145.935-145.965
AO-85 04 Dec 11:50:46 11:54:36 51° 59° (ENE) 11:58:22 145.980
DUCHIFAT 1 04 Dec 11:55:29 11:59:34 46° 261° (W) 12:03:40 145.980
50 SAT 04 Dec 12:00:25 12:03:28 26° 97° (E) 12:06:31 437.505
ESTCUBE 1 04 Dec 12:00:46 12:05:17 82° 284° (WNW) 12:09:48 437.505/2401.250
SPROUT 04 Dec 12:04:39 12:08:13 25° 96° (E) 12:11:44 437.525
POPSAT HIP 1 04 Dec 12:12:25 12:15:57 25° 263° (W) 12:19:31 437.405
AISAT 04 Dec 12:15:35 12:20:00 59° 101° (E) 12:24:24 437.250
PCSat 04 Dec 12:21:56 12:27:15 58° 298° (WNW) 12:32:36 145.827
Oscar 19 04 Dec 12:24:44 12:29:02 28° 69° (ENE) 12:33:22 437.125/150
GONETS M04 04 Dec 12:25:28 12:34:10 70° 82° (E) 12:42:52
JUGNU 04 Dec 12:30:41 12:34:45 19° 172° (S) 12:38:49 437.505
CUBEBUG 1 04 Dec 12:47:03 12:51:10 38° 287° (WNW) 12:55:16 437.445
VELOX 1 04 Dec 12:52:42 12:57:03 52° 286° (WNW) 13:01:22 145.980
BUGSAT 1 04 Dec 13:01:12 13:04:24 21° 264° (W) 13:07:40 437.445
DX 1 04 Dec 13:12:18 13:16:38 60° 285° (WNW) 13:20:56 434.975-435.025
Cosmos 2499 04 Dec 13:19:50 13:27:52 47° 271° (W) 13:35:19 435.465 / 435.565
UKube-1 04 Dec 13:23:11 13:27:28 61° 285° (WNW) 13:31:44 .
TISAT 1 04 Dec 13:32:54 13:36:53 40° 99° (E) 13:40:50 437.305
50 SAT 04 Dec 13:34:41 13:36:29 14° 291° (WNW) 13:38:19 437.505
SPROUT 04 Dec 13:40:42 13:43:58 22° 290° (WNW) 13:47:13 437.525
Gurwin Techsat 1B 04 Dec 13:44:03 13:49:22 88° 78° (ENE) 13:54:43 435.225
AISAT 04 Dec 13:54:52 13:55:54 11° 295° (WNW) 13:56:56 437.250
RS-15 04 Dec 14:00:02 14:05:41 14° 17° (NNE) 14:11:17 29.354- 29.394
Oscar 19 04 Dec 14:03:56 14:08:14 27° 263° (W) 14:12:35 437.125/150
SRMSAT 04 Dec 14:06:42 14:09:57 15° 167° (SSE) 14:13:10 437.500
BEESAT 3 04 Dec 14:06:46 14:09:31 18° 53° (NE) 14:12:15 437.485
SWISSCUBE 04 Dec 14:09:50 14:13:24 21° 96° (E) 14:16:57 437.505
BEESAT 04 Dec 14:14:06 14:17:39 21° 96° (E) 14:21:10 436.000
JUGNU 04 Dec 14:18:42 14:23:08 22° 182° (S) 14:27:33 437.505
GONETS M04 04 Dec 14:24:17 14:30:03 20° 278° (W) 14:35:50
ITAMSAT 1 04 Dec 14:27:23 14:32:24 50° 73° (ENE) 14:37:26 435.822/435.867
BEESAT 2 04 Dec 14:32:11 14:34:38 15° 51° (NE) 14:37:06 435.950
ITUPSAT 1 04 Dec 14:39:47 14:44:13 39° 99° (E) 14:48:39 437.325
AO-7 04 Dec 14:44:27 14:52:28 56° 68° (ENE) 15:00:31 29.400- 29.500
AUBIESAT-1 04 Dec 14:56:07 15:00:39 58° 105° (ESE) 15:04:56 437.475
M-CUBED/EXP-1 PRIME 04 Dec 15:06:42 15:11:24 84° 291° (WNW) 15:15:52 437.505
TISAT 1 04 Dec 15:10:01 15:12:08 14° 293° (WNW) 15:14:13 437.305
MOZHAYETS 4 04 Dec 15:35:19 15:39:31 36° 98° (E) 15:43:42
BEESAT 3 04 Dec 15:43:38 15:47:11 31° 248° (WSW) 15:50:42 437.485
SWISSCUBE 04 Dec 15:46:59 15:51:10 32° 289° (WNW) 15:55:20 437.505
BEESAT 04 Dec 15:51:13 15:55:25 32° 289° (WNW) 15:59:36 436.000
SRMSAT 04 Dec 15:54:06 15:58:27 21° 177° (S) 16:02:48 437.500
JUGNU 04 Dec 16:07:57 16:11:30 16° 192° (SSW) 16:15:02 437.505
BEESAT 2 04 Dec 16:08:49 16:12:34 38° 246° (WSW) 16:16:17 435.950
ITAMSAT 1 04 Dec 16:09:00 16:12:04 16° 266° (W) 16:15:09 435.822/435.867
RS-15 04 Dec 16:11:46 16:23:12 41° 49° (NE) 16:34:13 29.354- 29.394
KKS-1 04 Dec 16:18:08 16:22:25 43° 100° (E) 16:26:40 437.445
ITUPSAT 1 04 Dec 16:18:36 16:21:43 18° 293° (WNW) 16:24:50 437.325
ISS 04 Dec 16:21:21 16:24:34 56° 133° (SE) 16:27:48 145.825
HORYU 2 04 Dec 16:26:51 16:30:41 29° 71° (ENE) 16:34:32 437.375
STARS 04 Dec 16:29:24 16:33:04 25° 97° (E) 16:36:41 437.465
AUBIESAT-1 04 Dec 16:32:29 16:34:26 13° 300° (WNW) 16:36:23 437.475
GOMX 1 04 Dec 16:37:19 16:40:15 17° 67° (ENE) 16:43:17 467.674
AO-7 04 Dec 16:38:45 16:45:28 27° 263° (W) 16:52:15 29.400- 29.500
O/OREOS (USA 219) 04 Dec 16:45:07 16:49:38 60° 291° (WNW) 16:54:08 437.305
AIST 2 04 Dec 16:45:14 16:46:21 11° 48° (NE) 16:47:28 435.215
BRITE-PL 04 Dec 16:51:23 16:55:31 65° 76° (ENE) 16:59:56 437.365/2234.400
DOVE 4 04 Dec 16:57:45 16:59:28 12° 64° (ENE) 17:01:14 437.250
CUBESAT XI-V 04 Dec 17:10:03 17:14:38 55° 100° (E) 17:19:13 437.345
MOZHAYETS 4 04 Dec 17:13:24 17:16:21 17° 292° (WNW) 17:19:18
NOAA 18 04 Dec 17:24:23 17:28:39 23° 67° (ENE) 17:32:56 137.9125
CUTE-I 04 Dec 17:28:32 17:33:28 39° 71° (ENE) 17:38:25 437.470
SRMSAT 04 Dec 17:42:50 17:46:58 20° 187° (S) 17:51:07 437.500
Cubesat XI-IV 04 Dec 17:53:28 17:58:48 68° 75° (ENE) 18:04:09 437.490
KKS-1 04 Dec 17:56:11 17:58:33 14° 293° (WNW) 18:00:55 437.445
NOAA 15 04 Dec 17:56:27 18:01:41 83° 75° (ENE) 18:06:57 137.62
ISS 04 Dec 17:59:24 18:01:19 14° 329° (NNW) 18:03:13 145.825
HORYU 2 04 Dec 18:03:48 18:07:10 21° 264° (W) 18:10:33 437.375
STARS 04 Dec 18:05:47 18:09:15 23° 290° (WNW) 18:12:42 437.465
LilacSat-2 04 Dec 18:09:39 18:13:29 65° 258° (WSW) 18:17:20 437.200
GOMX 1 04 Dec 18:13:53 18:17:56 36° 263° (W) 18:22:17 467.674
AIST 2 04 Dec 18:21:03 18:25:15 68° 244° (WSW) 18:29:25 435.215
RS-15 04 Dec 18:24:13 18:36:07 59° 250° (WSW) 18:47:33 29.354- 29.394
Cosmos 2491 04 Dec 18:25:21 18:33:55 59° 80° (E) 18:42:27 435.465 / 435.565
CINEMA 3 04 Dec 18:25:33 18:29:36 27° 70° (ENE) 18:33:44 145.822/145.860
DOVE 4 04 Dec 18:31:52 18:36:27 62° 260° (W) 18:41:22 437.250
STRAND 1 04 Dec 18:32:33 18:34:27 12° 92° (E) 18:36:22 437.568
HO-68 04 Dec 18:46:12 18:52:48 42° 68° (ENE) 18:59:25 435.675
YUBILEINY 04 Dec 18:48:18 18:56:10 40° 87° (E) 19:04:05 435.215
CUBESAT XI-V 04 Dec 18:49:36 18:51:29 12° 294° (WNW) 18:53:22 437.345
CUBEBUG 2 04 Dec 18:56:23 18:58:40 13° 67° (ENE) 19:00:56 437.445
CUTE 1.7 + AOD 2 04 Dec 19:00:57 19:04:45 33° 73° (ENE) 19:08:33 437.475
Cosmos 2504 04 Dec 19:02:38 19:08:27 22° 81° (E) 19:14:29 435.465 / 435.565
NOAA 18 04 Dec 19:03:53 19:09:00 39° 261° (W) 19:14:11 137.9125
CUTE-I 04 Dec 19:09:31 19:13:33 22° 265° (W) 19:17:37 437.470
CANX-2 04 Dec 19:18:11 19:22:22 67° 76° (ENE) 19:26:33 2200.000
AAUSAT CUBESAT 2 04 Dec 19:32:37 19:36:00 25° 72° (ENE) 19:39:24 437.432
SRMSAT 04 Dec 19:33:28 19:35:27 12° 196° (SSW) 19:37:27 437.500
Cubesat XI-IV 04 Dec 19:37:25 19:39:15 12° 268° (W) 19:41:05 437.490
UWE-3 04 Dec 19:40:29 19:44:19 26° 71° (ENE) 19:48:09 435.000/436.395/437.385
SEEDS 04 Dec 19:46:56 19:51:06 85° 79° (ENE) 19:55:16 437.485
COMPASS 1 04 Dec 20:00:24 20:04:31 80° 78° (ENE) 20:08:39 437.405
CINEMA 3 04 Dec 20:02:27 20:06:34 27° 265° (W) 20:10:48 145.822/145.860
AIST 1 04 Dec 20:04:04 20:08:18 61° 93° (E) 20:12:33
STRAND 1 04 Dec 20:08:56 20:13:58 61° 285° (WNW) 20:18:57 437.568
SO-50 04 Dec 20:16:53 20:21:37 64° 116° (ESE) 20:26:19 436.795
Cosmos 2491 04 Dec 20:23:30 20:30:02 24° 277° (W) 20:36:35 435.465 / 435.565
ZACube-1 04 Dec 20:24:30 20:28:54 48° 74° (ENE) 20:33:15 437.345
CUBEBUG 2 04 Dec 20:30:08 20:34:46 53° 260° (W) 20:39:26 437.445
FUNcube-1 04 Dec 20:33:02 20:37:29 56° 75° (ENE) 20:41:54 145.935
HO-68 04 Dec 20:34:21 20:40:31 31° 263° (W) 20:46:43 435.675
CUTE 1.7 + AOD 2 04 Dec 20:38:10 20:40:38 15° 266° (W) 20:43:07 437.475
CUSAT 1 04 Dec 20:41:39 20:45:18 45° 82° (E) 20:50:04 437.405
PRISM 04 Dec 20:44:41 20:47:30 18° 95° (E) 20:50:19 437.425
DELFI C3 04 Dec 20:45:00 20:47:59 21° 71° (ENE) 20:51:00 145.870
YUBILEINY 04 Dec 20:45:01 20:52:51 37° 284° (WNW) 21:00:47 435.215
Cosmos 2504 04 Dec 20:52:47 21:00:53 66° 279° (W) 21:09:34 435.465 / 435.565
Oscar 11 04 Dec 21:05:55 21:10:11 60° 259° (W) 21:14:27 145.826/435.025
AAUSAT CUBESAT 2 04 Dec 21:08:27 21:11:25 19° 265° (W) 21:14:21 437.432
PCSat 04 Dec 21:13:58 21:19:10 45° 60° (ENE) 21:24:20 145.827
DANDE 04 Dec 21:14:07 21:16:05 16° 80° (E) 21:18:19 436.750
UWE-3 04 Dec 21:16:47 21:20:38 25° 264° (W) 21:24:29 435.000/436.395/437.385
SO-50 04 Dec 21:59:55 22:02:28 14° 312° (NW) 22:05:00 436.795
ZACube-1 04 Dec 22:03:21 22:05:20 13° 267° (W) 22:07:19 437.345
HUMSAT D 04 Dec 22:05:39 22:09:51 69° 258° (WSW) 22:14:03 437.325/437.525
FUNcube-1 04 Dec 22:12:56 22:13:57 11° 268° (W) 22:14:59 145.935
PRISM 04 Dec 22:19:10 22:22:46 29° 288° (WNW) 22:26:22 437.425
DELFI C3 04 Dec 22:19:43 22:22:40 20° 264° (W) 22:25:39 145.870
UNISAT 6 04 Dec 22:24:53 22:29:12 57° 101° (E) 22:33:25 437.425
JAS-2 04 Dec 22:38:08 22:40:31 13° 94° (E) 22:42:57 435.910
ISS 04 Dec 22:53:41 22:55:17 13° 30° (NNE) 22:56:52 145.825
TIGRISAT 04 Dec 22:55:20 22:59:42 65° 284° (WNW) 23:03:55 435.000
SPROUT 04 Dec 22:55:49 22:57:30 12° 67° (ENE) 22:59:09 437.525
ESTCUBE 1 04 Dec 22:55:56 23:00:16 53° 74° (ENE) 23:04:38 437.505/2401.250
ANTELSAT 04 Dec 22:56:26 23:00:46 59° 285° (WNW) 23:04:58 437.575/2403.000
DANDE 04 Dec 22:57:24 22:58:37 12° 264° (W) 22:59:56 436.750
PCSat 04 Dec 22:58:23 23:02:09 19° 255° (WSW) 23:05:55 145.827
AISAT 04 Dec 23:08:56 23:12:47 30° 71° (ENE) 23:16:40 437.250
NANOSAT C BR1 04 Dec 23:21:19 23:24:30 21° 95° (E) 23:27:40 145.865
QB50P2 04 Dec 23:25:24 23:29:03 27° 97° (E) 23:32:38 145.880/145.840
POLYITAN 1 04 Dec 23:26:04 23:29:37 26° 97° (E) 23:33:08 437.675
GONETS M04 04 Dec 23:30:01 23:34:01 14° 79° (E) 23:38:00
CUBEBUG 1 04 Dec 23:38:09 23:42:29 81° 258° (WSW) 23:46:53 437.445
QB50P1 04 Dec 23:39:14 23:43:11 37° 99° (E) 23:47:06 145.935-145.965
DUCHIFAT 1 04 Dec 23:43:41 23:47:34 35° 98° (E) 23:51:24 145.980
VELOX 1 04 Dec 23:45:19 23:49:42 80° 78° (ENE) 23:54:08 145.980
PHONESAT 2.4 04 Dec 23:56:25 23:58:34 22° 146° (SE) 00:00:44 2401.200-2431.200
Cosmos 2499 04 Dec 23:58:05 00:04:52 28° 84° (E) 00:11:56 435.465 / 435.565
POPSAT HIP 1 05 Dec 00:00:24 00:04:38 70° 102° (ESE) 00:08:49 437.405
DX 1 05 Dec 00:03:16 00:07:34 66° 75° (ENE) 00:11:53 434.975-435.025
50 SAT 05 Dec 00:04:05 00:07:33 63° 258° (WSW) 00:11:02 437.505
UNISAT 6 05 Dec 00:04:39 00:05:20 10° 295° (WNW) 00:06:00 437.425
UKube-1 05 Dec 00:13:08 00:17:23 62° 75° (ENE) 00:21:39 .
JAS-2 05 Dec 00:20:48 00:25:52 56° 286° (WNW) 00:31:13 435.910
TISAT 1 05 Dec 00:21:11 00:24:05 18° 69° (ENE) 00:26:58 437.305
SPROUT 05 Dec 00:28:48 00:32:56 47° 260° (W) 00:37:07 437.525
ISS 05 Dec 00:28:49 00:32:07 71° 226° (SW) 00:35:23 145.825
ESTCUBE 1 05 Dec 00:36:22 00:37:19 11° 268° (W) 00:38:16 437.505/2401.250
Oscar 19 05 Dec 00:41:40 00:44:13 14° 93° (E) 00:46:46 437.125/150
BUGSAT 1 05 Dec 00:45:57 00:50:08 76° 102° (ESE) 00:54:15 437.445
AISAT 05 Dec 00:46:08 00:49:14 19° 265° (W) 00:52:22 437.250
NANOSAT C BR1 05 Dec 00:56:41 01:00:08 25° 289° (WNW) 01:03:34 145.865
QB50P2 05 Dec 01:01:35 01:04:37 19° 291° (WNW) 01:07:38 145.880/145.840
POLYITAN 1 05 Dec 01:02:05 01:05:12 20° 290° (WNW) 01:08:18 437.675
SWISSCUBE 05 Dec 01:13:03 01:15:56 16° 67° (ENE) 01:18:48 437.505
QB50P1 05 Dec 01:16:17 01:18:35 14° 292° (WNW) 01:20:53 145.935-145.965
BEESAT 05 Dec 01:17:16 01:20:07 16° 67° (ENE) 01:22:57 436.000
DUCHIFAT 1 05 Dec 01:20:29 01:22:54 15° 292° (WNW) 01:25:17 145.980
GONETS M04 05 Dec 01:20:46 01:29:32 89° 276° (W) 01:38:16
O/OREOS (USA 219) 05 Dec 01:23:14 01:23:56 10° 58° (ENE) 01:24:37 437.305
PHONESAT 2.4 05 Dec 01:31:10 01:33:43 41° 340° (NNW) 01:36:15 2401.200-2431.200
AUBIESAT-1 05 Dec 01:37:46 01:41:23 33° 67° (ENE) 01:45:16 437.475
ITUPSAT 1 05 Dec 01:42:37 01:46:43 29° 70° (ENE) 01:50:49 437.325
M-CUBED/EXP-1 PRIME 05 Dec 01:48:35 01:52:27 58° 70° (ENE) 01:56:40 437.505
Cosmos 2499 05 Dec 01:49:14 01:57:22 54° 281° (W) 02:06:01 435.465 / 435.565
TISAT 1 05 Dec 01:55:44 01:59:26 30° 262° (W) 02:03:12 437.305
AO-85 05 Dec 02:00:01 02:04:57 53° 115° (ESE) 02:09:33 145.980
Gurwin Techsat 1B 05 Dec 02:04:39 02:09:48 49° 100° (E) 02:14:55 435.225
Oscar 19 05 Dec 02:18:43 02:23:48 56° 287° (WNW) 02:28:53 437.125/150
MOZHAYETS 4 05 Dec 02:33:34 02:37:05 22° 70° (ENE) 02:40:37
ITAMSAT 1 05 Dec 02:45:01 02:49:13 25° 96° (E) 02:53:23 435.822/435.867
SWISSCUBE 05 Dec 02:48:46 02:53:19 44° 260° (W) 02:57:52 437.505
AO-7 05 Dec 02:51:56 02:58:11 23° 96° (E) 03:04:22 29.400- 29.500
BEESAT 05 Dec 02:52:56 02:57:30 44° 261° (W) 03:02:04 436.000
O/OREOS (USA 219) 05 Dec 02:59:19 03:03:44 63° 254° (WSW) 03:08:08 437.305
PHONESAT 2.4 05 Dec 03:07:28 03:09:22 17° 356° (N) 03:11:15 2401.200-2431.200
KKS-1 05 Dec 03:12:27 03:16:03 24° 70° (ENE) 03:19:40 437.445
AUBIESAT-1 05 Dec 03:13:24 03:15:53 16° 263° (W) 03:18:30 437.475
ITUPSAT 1 05 Dec 03:20:41 03:24:28 23° 264° (W) 03:28:17 437.325
GONETS M04 05 Dec 03:23:00 03:27:26 15° 293° (WNW) 03:31:54
STARS 05 Dec 03:23:10 03:25:30 14° 67° (ENE) 03:27:52 437.465
AO-85 05 Dec 03:42:29 03:45:35 17° 308° (NW) 03:48:34 145.980
Gurwin Techsat 1B 05 Dec 03:45:54 03:49:17 17° 294° (WNW) 03:52:41 435.225
CUBESAT XI-V 05 Dec 04:09:24 04:13:29 32° 72° (ENE) 04:17:33 437.345
MOZHAYETS 4 05 Dec 04:10:06 04:14:03 28° 263° (W) 04:18:01
ITAMSAT 1 05 Dec 04:24:05 04:28:38 32° 290° (WNW) 04:33:09 435.822/435.867
PHONESAT 2.4 05 Dec 04:42:57 04:45:09 22° 13° (NNE) 04:47:20 2401.200-2431.200
AO-7 05 Dec 04:43:05 04:51:21 66° 290° (WNW) 04:59:36 29.400- 29.500
KKS-1 05 Dec 04:48:52 04:52:28 24° 263° (W) 04:56:07 437.445
SO-50 05 Dec 04:53:14 04:56:25 19° 51° (NE) 04:59:33 436.795
STARS 05 Dec 04:57:15 05:01:27 43° 261° (W) 05:05:41 437.465
BRITE-PL 05 Dec 04:59:15 05:04:14 34° 97° (E) 05:09:21 437.365/2234.400
YUBILEINY 05 Dec 05:05:26 05:10:04 15° 67° (ENE) 05:14:40 435.215
BEESAT 3 05 Dec 05:29:12 05:33:03 70° 298° (WNW) 05:36:59 437.485
Cosmos 2491 05 Dec 05:32:16 05:34:08 11° 77° (ENE) 05:35:59 435.465 / 435.565
STRAND 1 05 Dec 05:44:51 05:46:57 13° 64° (ENE) 05:49:03 437.568
CUBESAT XI-V 05 Dec 05:47:38 05:50:51 19° 265° (W) 05:54:05 437.345
LilacSat-2 05 Dec 05:48:03 05:50:33 17° 95° (E) 05:53:03 437.200
CUTE-I 05 Dec 05:50:24 05:54:24 21° 95° (E) 05:58:24 437.470
NOAA 18 05 Dec 05:51:50 05:54:16 13° 93° (E) 05:56:41 137.9125
BEESAT 2 05 Dec 05:55:56 05:59:50 82° 298° (WNW) 06:03:49 435.950
HORYU 2 05 Dec 05:57:29 06:01:55 80° 284° (WNW) 06:06:19 437.375
Cubesat XI-IV 05 Dec 06:15:15 06:20:12 38° 99° (E) 06:25:07 437.490
NOAA 15 05 Dec 06:15:55 06:20:57 44° 99° (E) 06:25:58 137.62
PHONESAT 2.4 05 Dec 06:17:56 06:20:33 70° 209° (SSW) 06:23:12 2401.200-2431.200
AIST 1 05 Dec 06:18:15 06:19:03 10° 72° (ENE) 06:19:50
GOMX 1 05 Dec 06:18:36 06:24:08 89° 103° (ESE) 06:29:36 467.674
RS-15 05 Dec 06:30:20 06:40:16 35° 104° (ESE) 06:50:34 29.354- 29.394
SO-50 05 Dec 06:32:50 06:37:01 39° 246° (WSW) 06:41:07 436.795
DOVE 4 05 Dec 06:34:47 06:39:57 53° 99° (E) 06:44:56 437.250
BRITE-PL 05 Dec 06:37:57 06:42:29 27° 290° (WNW) 06:47:08 437.365/2234.400
AO-7 05 Dec 06:39:57 06:42:31 12° 309° (NW) 06:45:05 29.400- 29.500
Cosmos 2504 05 Dec 06:51:06 06:59:09 39° 76° (ENE) 07:06:44 435.465 / 435.565
YUBILEINY 05 Dec 06:59:07 07:07:59 89° 83° (E) 07:16:50 435.215
CANX-2 05 Dec 07:08:31 07:11:05 16° 94° (E) 07:13:39 2200.000
STRAND 1 05 Dec 07:20:24 07:25:30 66° 258° (WSW) 07:30:38 437.568
Cosmos 2491 05 Dec 07:20:39 07:29:25 78° 94° (E) 07:38:11 435.465 / 435.565
LilacSat-2 05 Dec 07:21:45 07:24:47 23° 288° (WNW) 07:27:48 437.200
CUTE-I 05 Dec 07:29:38 07:34:30 38° 289° (WNW) 07:39:22 437.470
NOAA 18 05 Dec 07:29:48 07:35:18 65° 286° (WNW) 07:40:44 137.9125
SEEDS 05 Dec 07:35:44 07:38:42 19° 95° (E) 07:41:39 437.485
COMPASS 1 05 Dec 07:48:17 07:51:00 17° 94° (E) 07:53:44 437.405
AIST 1 05 Dec 07:52:38 07:56:55 51° 267° (W) 08:01:10
Cubesat XI-IV 05 Dec 07:55:57 07:59:59 22° 293° (WNW) 08:03:59 437.490
NOAA 15 05 Dec 07:56:42 08:00:21 19° 294° (WNW) 08:04:00 137.62
GOMX 1 05 Dec 08:00:28 08:01:21 10° 297° (WNW) 08:02:16 467.674
CINEMA 3 05 Dec 08:00:49 08:05:37 77° 282° (WNW) 08:10:10 145.822/145.860
HO-68 05 Dec 08:05:17 08:12:28 66° 103° (ESE) 08:19:35 435.675
DOVE 4 05 Dec 08:13:55 08:17:04 16° 294° (WNW) 08:20:10 437.250
AIST 2 05 Dec 08:14:15 08:18:17 69° 116° (ESE) 08:22:24 435.215
ZACube-1 05 Dec 08:19:23 08:20:49 12° 92° (E) 08:22:15 437.345
CUTE 1.7 + AOD 2 05 Dec 08:25:03 08:29:14 65° 283° (WNW) 08:33:24 437.475
CUBEBUG 2 05 Dec 08:25:32 08:29:42 43° 98° (E) 08:33:43 437.445
FUNcube-1 05 Dec 08:27:05 08:29:08 13° 93° (E) 08:31:10 145.935
